COSMOS 2242

Last updated on Wed Nov 05 2025 00:02:14 GMT+0000 (Coordinated Universal Time)

1 22626U 93024A 25308.30946058 .00002566 00000+0 22675-3 0 9992 2 22626 82.5224 26.5644 0016606 12.3282 347.8343 14.95866645761647
UTC large
Height (km)
Speed (km/s)
/
Latitude / Longitude
Inclination (degrees)
Orbital Period (minutes)
Azimuth
Elevation
Range (km)
Doppler Factor

Next 0 passes for location: London (51.5072 / 0.1276)

Sorry there are no passes over London.